| time (UTC) | temp F | wind direction | speed MPH | gust MPH | rain 1hr in | rain 24hr in | rain mn in | humidity % | barometer mb |
| 20260503004543 | 64 | 118 | 1.0 | 3.0 | 0.00 | 0.00 | 0.00 | 41 | 1015.8 |
| 20260503003050 | 64 | 119 | 0.0 | 3.0 | 0.00 | 0.00 | 0.00 | 41 | 1016.0 |
| 20260503001538 | 63 | 121 | 0.0 | 3.0 | 0.00 | 0.00 | 0.00 | 40 | 1016.1 |
| 20260503000038 | 62 | 0 | 0.0 | 6.0 | 0.00 | 0.00 | 0.00 | 44 | 1016.1 |
| 20260502234543 | 61 | 121 | 0.0 | 12.0 | 0.00 | 0.00 | 0.00 | 46 | 1016.4 |
| 20260502233042 | 64 | 350 | 2.0 | 12.0 | 0.00 | 0.00 | 0.00 | 43 | 1017.1 |
| 20260502231542 | 64 | 21 | 2.0 | 4.0 | 0.00 | 0.00 | 0.00 | 37 | 1016.7 |
| 20260502230042 | 64 | 349 | 2.0 | 6.0 | 0.00 | 0.00 | 0.00 | 38 | 1016.7 |
| 20260502224538 | 64 | 348 | 3.0 | 8.0 | 0.00 | 0.00 | 0.00 | 38 | 1016.7 |
| 20260502223037 | 65 | 246 | 2.0 | 9.0 | 0.00 | 0.00 | 0.00 | 37 | 1017.0 |
| 20260502221537 | 65 | 234 | 3.0 | 9.0 | 0.00 | 0.00 | 0.00 | 36 | 1017.2 |
| 20260502220043 | 66 | 236 | 2.0 | 8.0 | 0.00 | 0.00 | 0.00 | 36 | 1017.4 |
| 20260502214541 | 66 | 113 | 2.0 | 8.0 | 0.00 | 0.00 | 0.00 | 37 | 1017.6 |
| 20260502213041 | 65 | 134 | 3.0 | 8.0 | 0.00 | 0.00 | 0.00 | 37 | 1017.9 |
| 20260502211547 | 64 | 329 | 2.0 | 9.0 | 0.00 | 0.00 | 0.00 | 39 | 1018.2 |
| 20260502210045 | 64 | 340 | 5.0 | 12.0 | 0.00 | 0.00 | 0.00 | 39 | 1018.5 |
| 20260502204537 | 63 | 192 | 2.0 | 8.0 | 0.00 | 0.00 | 0.00 | 39 | 1018.6 |
| 20260502203046 | 64 | 349 | 6.0 | 11.0 | 0.00 | 0.00 | 0.00 | 40 | 1018.9 |
| 20260502201544 | 63 | 311 | 2.0 | 10.0 | 0.00 | 0.00 | 0.00 | 42 | 1019.0 |
| 20260502200042 | 63 | 15 | 1.0 | 9.0 | 0.00 | 0.00 | 0.00 | 41 | 1019.2 |
| 20260502194541 | 63 | 355 | 3.0 | 11.0 | 0.00 | 0.00 | 0.00 | 41 | 1019.2 |
| 20260502193036 | 64 | 332 | 4.0 | 10.0 | 0.00 | 0.00 | 0.00 | 39 | 1019.5 |
| 20260502191545 | 63 | 81 | 3.0 | 10.0 | 0.00 | 0.00 | 0.00 | 42 | 1019.9 |
| 20260502190043 | 62 | 43 | 4.0 | 12.0 | 0.00 | 0.00 | 0.00 | 42 | 1019.8 |
| 20260502184543 | 61 | 35 | 3.0 | 12.0 | 0.00 | 0.00 | 0.00 | 43 | 1019.9 |
| 20260502183039 | 60 | 355 | 7.0 | 10.0 | 0.00 | 0.00 | 0.00 | 46 | 1020.0 |
| 20260502181555 | 60 | 29 | 4.0 | 12.0 | 0.00 | 0.00 | 0.00 | 45 | 1020.0 |
| 20260502163035 | 58 | 355 | 5.0 | 10.0 | 0.00 | 0.00 | 0.00 | 47 | 1020.4 |
| 20260502161534 | 58 | 336 | 5.0 | 11.0 | 0.00 | 0.00 | 0.00 | 47 | 1020.5 |
| 20260502151538 | 55 | 9 | 8.0 | 15.0 | 0.00 | 0.00 | 0.00 | 53 | 1020.4 |
| 20260502123035 | 43 | 0 | 2.0 | 6.0 | 0.00 | 0.00 | 0.00 | 67 | 1019.8 |
| 20260502121538 | 43 | 23 | 4.0 | 8.0 | 0.00 | 0.00 | 0.00 | 67 | 1019.6 |
| 20260502114536 | 44 | 28 | 5.0 | 9.0 | 0.00 | 0.00 | 0.00 | 66 | 1019.3 |
| 20260502113036 | 45 | 22 | 6.0 | 11.0 | 0.00 | 0.00 | 0.00 | 65 | 1019.4 |
| 20260502111535 | 45 | 5 | 8.0 | 12.0 | 0.00 | 0.00 | 0.00 | 64 | 1019.0 |
| 20260502110044 | 46 | 5 | 9.0 | 13.0 | 0.00 | 0.00 | 0.00 | 61 | 1018.8 |
| 20260502104542 | 47 | 18 | 10.0 | 17.0 | 0.00 | 0.00 | 0.00 | 58 | 1018.2 |
| 20260502103037 | 49 | 338 | 13.0 | 19.0 | 0.00 | 0.00 | 0.00 | 56 | 1017.9 |
| 20260502101541 | 48 | 360 | 13.0 | 18.0 | 0.00 | 0.00 | 0.00 | 58 | 1017.3 |
| 20260502070041 | 60 | 318 | 12.0 | 17.0 | 0.00 | 0.00 | 0.00 | 31 | 1015.8 |
| 20260502064553 | 59 | 319 | 12.0 | 17.0 | 0.00 | 0.00 | 0.00 | 34 | 1015.8 |
| 20260502063039 | 56 | 315 | 5.0 | 10.0 | 0.00 | 0.00 | 0.00 | 36 | 1015.8 |
| 20260502061537 | 55 | 0 | 1.0 | 8.0 | 0.00 | 0.00 | 0.00 | 37 | 1015.8 |
| 20260502060038 | 56 | 0 | 0.0 | 2.0 | 0.00 | 0.00 | 0.00 | 35 | 1015.6 |
| 20260502054538 | 57 | 313 | 3.0 | 8.0 | 0.00 | 0.00 | 0.00 | 34 | 1015.6 |
| 20260502053042 | 57 | 318 | 1.0 | 4.0 | 0.00 | 0.00 | 0.00 | 35 | 1015.7 |
| 20260502051540 | 57 | 316 | 4.0 | 9.0 | 0.00 | 0.00 | 0.00 | 35 | 1015.7 |
| 20260502050036 | 58 | 321 | 6.0 | 14.0 | 0.00 | 0.00 | 0.00 | 34 | 1015.6 |
| 20260502044539 | 58 | 311 | 7.0 | 12.0 | 0.00 | 0.00 | 0.00 | 34 | 1015.5 |
| 20260502043047 | 58 | 307 | 7.0 | 11.0 | 0.00 | 0.00 | 0.00 | 33 | 1015.5 |
| 20260502041543 | 59 | 297 | 6.0 | 10.0 | 0.00 | 0.00 | 0.00 | 32 | 1015.4 |
| 20260502040052 | 59 | 297 | 6.0 | 11.0 | 0.00 | 0.00 | 0.00 | 31 | 1015.5 |
| 20260502034537 | 59 | 299 | 7.0 | 11.0 | 0.00 | 0.00 | 0.00 | 31 | 1015.3 |
| 20260502033036 | 60 | 304 | 5.0 | 9.0 | 0.00 | 0.00 | 0.00 | 30 | 1015.4 |
| 20260502031544 | 61 | 304 | 7.0 | 10.0 | 0.00 | 0.00 | 0.00 | 29 | 1015.2 |
| 20260502030041 | 61 | 300 | 7.0 | 11.0 | 0.00 | 0.00 | 0.00 | 28 | 1015.1 |
| 20260502024541 | 62 | 296 | 5.0 | 8.0 | 0.00 | 0.00 | 0.00 | 26 | 1014.8 |
| 20260502023039 | 64 | 310 | 3.0 | 8.0 | 0.00 | 0.00 | 0.00 | 25 | 1014.9 |
| 20260502021538 | 65 | 298 | 6.0 | 9.0 | 0.00 | 0.00 | 0.00 | 24 | 1014.7 |
| 20260502020035 | 67 | 300 | 5.0 | 9.0 | 0.00 | 0.00 | 0.00 | 23 | 1014.6 |
| 20260502014547 | 69 | 288 | 9.0 | 13.0 | 0.00 | 0.00 | 0.00 | 20 | 1014.7 |
| 20260502013041 | 70 | 279 | 8.0 | 14.0 | 0.00 | 0.00 | 0.00 | 19 | 1014.6 |
| 20260502011539 | 70 | 278 | 9.0 | 14.0 | 0.00 | 0.00 | 0.00 | 17 | 1014.5 |
| 20260502010038 | 70 | 291 | 12.0 | 17.0 | 0.00 | 0.00 | 0.00 | 17 | 1014.4 |